Weather History for Huntsville Madison, AL

Change the Weather History Date:

Friday, February 22, 2013

  Actual Average (KHSV) Record (KHSV)
Temperature  
Mean Temperature 47 °F 48 °F  
Max Temperature 50 °F 58 °F 76 °F (1980)
Min Temperature 44 °F 37 °F 5 °F (1963)
Degree Days  
Heating Degree Days 18 18  
Month to date heating degree days 443  
Since 1 July heating degree days 2353  
Cooling Degree Days 0 0  
Month to date cooling degree days 0  
Year to date cooling degree days 0  
Moisture  
Dew Point 43 °F    
Average Humidity 82    
Maximum Humidity 93    
Minimum Humidity 76    
Precipitation  
Precipitation 0.05 in 0.19 in 2.69 in (1961)
Month to date precipitation 3.77  
Year to date precipitation 8.66  
Snow  
Snow 0.00 in - - ()
Month to date snowfall  
Since 1 July snowfall  
Snow Depth -    
Sea Level Pressure  
Sea Level Pressure 30.01 in    
Wind  
Wind Speed 8 mph (SSE)    
Max Wind Speed 15 mph    
Max Gust Speed 23 mph    
Visibility 9 miles    
Events Rain    
T = Trace of Precipitation, MM = Missing Value Source: NWS Daily Summary

Daily Weather History Graph

Daily Weather History Graph

Search for Another Location

Airport:

Trip Planner

Search our weather history database for the weather conditions in past years. The results will help you decide how hot, cold, wet, or windy it might be!

Date:

Astronomy

Feb. 22, 2013 Rise Set
Actual Time 6:23 AM CST 5:35 PM CST
Civil Twilight 5:58 AM CST 6:01 PM CST
Nautical Twilight 5:28 AM CST 6:30 PM CST
Astronomical Twilight 4:59 AM CST 7:00 PM CST
Moon 2:51 PM CST (2/22) 4:03 AM CST (2/22)
Length of Visible Light 12h 03m
Length of Day
11h 12m
Waxing Gibbous, 90% of the Moon is Illuminated
Feb 22
Waxing Gibbous
Feb 25
Full
Mar 4
Last Quarter
Mar 11
New
Mar 19
First Quarter

Hourly Weather History & Observations

Time (CST) Temp. Windchill Dew Point Humidity Pressure Visibility Wind Dir Wind Speed Gust Speed Precip Events Conditions
12:15 AM 46.4 °F 41.5 °F 42.8 °F 87% 29.94 in 10.0 mi SE 10.4 mph - 0.01 in Rain Light Rain
12:35 AM 46.4 °F 41.9 °F 42.8 °F 87% 29.94 in 5.0 mi SE 9.2 mph - 0.02 in Rain Heavy Rain
12:55 AM 46.4 °F 41.9 °F 42.8 °F 87% 29.94 in 7.0 mi SE 9.2 mph - 0.02 in   Drizzle
1:15 AM 46.4 °F 40.7 °F 44.6 °F 93% 29.93 in 10.0 mi SSE 12.7 mph 17.3 mph 0.01 in   Overcast
1:35 AM 48.2 °F - 44.6 °F 87% 29.92 in 10.0 mi SSE 13.8 mph 20.7 mph 0.01 in   Overcast
1:55 AM 46.4 °F 40.1 °F 42.8 °F 87% 29.92 in 10.0 mi SSE 15.0 mph 23.0 mph 0.02 in   Overcast
2:15 AM 46.4 °F 40.4 °F 42.8 °F 87% 29.92 in 10.0 mi SSE 13.8 mph 19.6 mph N/A   Overcast
2:35 AM 46.4 °F 40.1 °F 42.8 °F 87% 29.92 in 10.0 mi SSE 15.0 mph 21.9 mph N/A   Overcast
2:55 AM 46.4 °F 41.1 °F 42.8 °F 87% 29.93 in 10.0 mi SSE 11.5 mph 20.7 mph N/A   Overcast
3:15 AM 46.4 °F 41.5 °F 42.8 °F 87% 29.93 in 10.0 mi SSE 10.4 mph - N/A Rain Rain
3:35 AM 46.4 °F 40.7 °F 42.8 °F 87% 29.93 in 10.0 mi SE 12.7 mph - N/A   Overcast
3:55 AM 46.4 °F 41.9 °F 42.8 °F 87% 29.94 in 10.0 mi SSE 9.2 mph 17.3 mph N/A   Overcast
4:15 AM 46.4 °F 42.9 °F 42.8 °F 87% 29.95 in 10.0 mi SSE 6.9 mph - N/A   Overcast
4:35 AM 46.4 °F 41.9 °F 42.8 °F 87% 29.96 in 10.0 mi SSE 9.2 mph - N/A   Overcast
4:55 AM 48.2 °F - 42.8 °F 82% 29.97 in 10.0 mi SE 8.1 mph - N/A   Overcast
5:15 AM 48.2 °F - 42.8 °F 82% 29.98 in 10.0 mi SSE 10.4 mph 17.3 mph N/A   Light Drizzle
5:35 AM 48.2 °F - 42.8 °F 82% 30.01 in 10.0 mi SSW 9.2 mph - N/A Rain Rain
5:55 AM 48.2 °F - 42.8 °F 82% 30.01 in 10.0 mi SE 4.6 mph - N/A   Overcast
6:15 AM 48.2 °F - 42.8 °F 82% 30.01 in 10.0 mi SSE 5.8 mph - N/A   Overcast
6:35 AM 48.2 °F - 42.8 °F 82% 30.02 in 10.0 mi SSE 6.9 mph - N/A   Overcast
7:15 AM 48.2 °F - 42.8 °F 82% 30.03 in 10.0 mi SSE 9.2 mph - N/A   Overcast
7:35 AM 48.2 °F - 42.8 °F 82% 30.03 in 10.0 mi SSE 6.9 mph - N/A   Overcast
7:55 AM 48.2 °F - 42.8 °F 82% 30.03 in 10.0 mi SSE 8.1 mph - N/A   Overcast
8:15 AM 48.2 °F - 42.8 °F 82% 30.03 in 10.0 mi SE 4.6 mph - N/A   Overcast
8:35 AM 48.2 °F - 42.8 °F 82% 30.04 in 10.0 mi SE 5.8 mph - N/A   Overcast
8:55 AM 48.2 °F - 42.8 °F 82% 30.05 in 10.0 mi SE 8.1 mph - N/A   Overcast
9:15 AM 48.2 °F - 42.8 °F 82% 30.05 in 10.0 mi SSE 6.9 mph - N/A   Overcast
9:35 AM 48.2 °F - 42.8 °F 82% 30.06 in 10.0 mi SE 5.8 mph - N/A   Overcast
10:15 AM 48.2 °F - 42.8 °F 82% 30.06 in 10.0 mi SE 10.4 mph - N/A   Overcast
10:35 AM 48.2 °F - 42.8 °F 82% 30.06 in 10.0 mi SSE 9.2 mph - N/A   Overcast
10:55 AM 48.2 °F - 42.8 °F 82% 30.09 in 10.0 mi SSE 6.9 mph - N/A   Overcast
11:15 AM 50.0 °F - 42.8 °F 76% 30.09 in 10.0 mi SSE 4.6 mph - N/A   Overcast
11:35 AM 50.0 °F - 42.8 °F 76% 30.09 in 10.0 mi SSE 4.6 mph - N/A   Overcast
11:55 AM 50.0 °F - 42.8 °F 76% 30.08 in 10.0 mi SSE 6.9 mph - N/A   Overcast
12:15 PM 50.0 °F - 42.8 °F 76% 30.07 in 10.0 mi SSE 6.9 mph - N/A   Overcast
12:35 PM 50.0 °F - 42.8 °F 76% 30.06 in 10.0 mi SE 6.9 mph - N/A   Overcast
12:55 PM 50.0 °F - 42.8 °F 76% 30.05 in 10.0 mi SE 11.5 mph - N/A   Overcast
1:15 PM 50.0 °F - 42.8 °F 76% 30.04 in 10.0 mi SSE 10.4 mph - N/A   Overcast
1:35 PM 50.0 °F - 42.8 °F 76% 30.03 in 10.0 mi SE 10.4 mph - N/A   Overcast
1:55 PM 50.0 °F - 42.8 °F 76% 30.02 in 10.0 mi SSE 8.1 mph - N/A   Overcast
2:15 PM 50.0 °F - 42.8 °F 76% 30.01 in 10.0 mi SE 4.6 mph - N/A   Overcast
2:35 PM 50.0 °F - 42.8 °F 76% 30.01 in 10.0 mi SE 3.5 mph - N/A   Overcast
2:55 PM 50.0 °F - 42.8 °F 76% 30.01 in 10.0 mi SE 8.1 mph - N/A   Overcast
3:15 PM 50.0 °F - 42.8 °F 76% 30.01 in 10.0 mi SE 5.8 mph - N/A   Overcast
3:35 PM 50.0 °F - 42.8 °F 76% 30.01 in 10.0 mi SE 4.6 mph - N/A   Overcast
3:55 PM 50.0 °F - 42.8 °F 76% 30.00 in 10.0 mi SE 3.5 mph - N/A   Overcast
4:15 PM 50.0 °F - 42.8 °F 76% 30.00 in 10.0 mi SSE 6.9 mph - N/A   Overcast
4:35 PM 50.0 °F - 42.8 °F 76% 30.02 in 10.0 mi SSE 5.8 mph - N/A   Overcast
4:55 PM 48.2 °F - 42.8 °F 82% 30.02 in 10.0 mi Calm Calm - N/A   Overcast
5:15 PM 48.2 °F - 42.8 °F 82% 30.03 in 10.0 mi SSE 4.6 mph - N/A   Overcast
5:35 PM 48.2 °F - 42.8 °F 82% 30.03 in 10.0 mi SE 4.6 mph - N/A   Overcast
5:55 PM 48.2 °F - 42.8 °F 82% 30.01 in 10.0 mi SE 4.6 mph - N/A   Overcast
6:15 PM 48.2 °F - 42.8 °F 82% 30.01 in 10.0 mi SE 3.5 mph - N/A   Overcast
6:35 PM 46.4 °F - 42.8 °F 87% 30.01 in 10.0 mi Calm Calm - N/A   Overcast
6:55 PM 46.4 °F 44.3 °F 41.0 °F 81% 30.01 in 10.0 mi SE 4.6 mph - N/A   Overcast
7:15 PM 46.4 °F - 41.0 °F 81% 30.01 in 10.0 mi Calm Calm - N/A   Overcast
7:35 PM 46.4 °F 44.3 °F 41.0 °F 81% 30.04 in 10.0 mi SE 4.6 mph - N/A   Mostly Cloudy
7:55 PM 46.4 °F 45.2 °F 41.0 °F 81% 30.03 in 10.0 mi SE 3.5 mph - N/A   Mostly Cloudy
8:15 PM 46.4 °F - 41.0 °F 81% 30.02 in 10.0 mi Calm Calm - N/A   Overcast
8:35 PM 46.4 °F 45.2 °F 41.0 °F 81% 30.02 in 10.0 mi SE 3.5 mph - N/A   Overcast
8:55 PM 46.4 °F - 41.0 °F 81% 30.03 in 10.0 mi Calm Calm - N/A   Overcast
9:15 PM 46.4 °F 43.5 °F 41.0 °F 81% 30.05 in 7.0 mi SSE 5.8 mph - N/A   Overcast
9:35 PM 46.4 °F 44.3 °F 41.0 °F 81% 30.01 in 7.0 mi SE 4.6 mph - N/A   Mostly Cloudy
9:55 PM 44.6 °F 41.4 °F 41.0 °F 87% 30.00 in 7.0 mi SE 5.8 mph - N/A   Mostly Cloudy
10:15 PM 46.4 °F 44.3 °F 41.0 °F 81% 30.05 in 7.0 mi SSW 4.6 mph - N/A   Overcast
10:35 PM 44.6 °F - 41.0 °F 87% 30.04 in 7.0 mi Calm Calm - N/A   Overcast
10:55 PM 44.6 °F - 41.0 °F 87% 30.01 in 5.0 mi Calm Calm - N/A Rain Rain
11:15 PM 44.6 °F - 42.8 °F 93% 30.00 in 4.0 mi Calm Calm - 0.01 in Rain Light Rain
11:35 PM 44.6 °F - 42.8 °F 93% 29.98 in 4.0 mi Calm Calm - 0.01 in   Light Drizzle
11:55 PM 44.6 °F - 42.8 °F 93% 30.01 in 5.0 mi Calm Calm - 0.01 in   Light Drizzle